TimeEST,TemperatureF,Dew PointF,Humidity,Sea Level PressureIn,VisibilityMPH,Wind Direction,Wind SpeedMPH,Gust SpeedMPH,PrecipitationIn,Events,Conditions,WindDirDegrees,DateUTC
12:56 AM,46.9,42.1,83,30.00,10.0,North,4.6,-,N/A,,Scattered Clouds,350,2012-11-05 05:56:00
1:56 AM,46.9,42.1,83,30.00,10.0,North,5.8,-,N/A,,Mostly Cloudy,360,2012-11-05 06:56:00
2:56 AM,46.9,42.1,83,30.00,10.0,North,4.6,-,N/A,,Overcast,10,2012-11-05 07:56:00
3:56 AM,46.0,41.0,83,29.99,10.0,North,8.1,-,N/A,,Partly Cloudy,360,2012-11-05 08:56:00
4:56 AM,46.0,39.9,79,30.01,10.0,North,8.1,-,N/A,,Clear,360,2012-11-05 09:56:00
5:56 AM,45.0,39.9,82,30.04,10.0,North,6.9,-,N/A,,Mostly Cloudy,350,2012-11-05 10:56:00
6:56 AM,46.0,39.9,79,30.04,10.0,North,8.1,-,N/A,,Mostly Cloudy,10,2012-11-05 11:56:00
7:56 AM,46.9,39.0,74,30.07,10.0,North,10.4,-,N/A,,Mostly Cloudy,10,2012-11-05 12:56:00
8:56 AM,48.9,39.9,71,30.07,10.0,North,10.4,-,N/A,,Scattered Clouds,10,2012-11-05 13:56:00
9:56 AM,53.1,39.0,59,30.07,10.0,NNE,9.2,17.3,N/A,,Clear,30,2012-11-05 14:56:00
10:56 AM,55.0,39.0,55,30.06,10.0,NNE,10.4,-,N/A,,Clear,30,2012-11-05 15:56:00
11:56 AM,57.0,37.9,49,30.05,10.0,NNE,11.5,-,N/A,,Clear,30,2012-11-05 16:56:00
12:56 PM,57.0,37.0,47,30.04,10.0,North,12.7,20.7,N/A,,Clear,10,2012-11-05 17:56:00
1:56 PM,57.9,36.0,44,30.03,10.0,North,10.4,-,N/A,,Clear,10,2012-11-05 18:56:00
2:56 PM,57.9,35.1,42,30.03,10.0,NNE,10.4,-,N/A,,Clear,20,2012-11-05 19:56:00
3:56 PM,55.9,34.0,44,30.04,10.0,North,10.4,-,N/A,,Clear,10,2012-11-05 20:56:00
4:56 PM,53.1,34.0,48,30.05,10.0,North,8.1,-,N/A,,Clear,10,2012-11-05 21:56:00
5:56 PM,48.9,35.1,59,30.07,10.0,North,5.8,-,N/A,,Clear,10,2012-11-05 22:56:00
6:56 PM,46.9,36.0,66,30.08,10.0,North,5.8,-,N/A,,Clear,10,2012-11-05 23:56:00
7:56 PM,46.0,37.0,71,30.09,10.0,NNE,4.6,-,N/A,,Clear,20,2012-11-06 00:56:00
8:56 PM,45.0,36.0,71,30.12,10.0,NNE,6.9,-,N/A,,Clear,30,2012-11-06 01:56:00
9:56 PM,44.1,36.0,73,30.14,10.0,NE,6.9,-,N/A,,Clear,40,2012-11-06 02:56:00
10:56 PM,45.0,37.0,74,30.12,10.0,ENE,11.5,-,N/A,,Clear,60,2012-11-06 03:56:00
11:56 PM,45.0,37.0,74,30.11,10.0,ENE,11.5,-,N/A,,Clear,60,2012-11-06 04:56:00